Weather History for KIOB - December, 2012

Change the Weather History Date:

Sunday, December 2, 2012

  Actual Average (KLEX) Record (KLEX)
Temperature  
Mean Temperature 58 °F 40 °F  
Max Temperature 64 °F 48 °F 75 °F (1982)
Min Temperature 51 °F 32 °F 4 °F (1929)
Degree Days  
Heating Degree Days 8 25  
Month to date heating degree days 50  
Since 1 July heating degree days 937  
Cooling Degree Days 0 0  
Month to date cooling degree days 0  
Year to date cooling degree days 1190  
Growing Degree Days 8 (Base 50)    
Moisture  
Dew Point 49 °F    
Average Humidity 72    
Maximum Humidity 88    
Minimum Humidity 59    
Precipitation  
Precipitation 0.00 in 0.13 in 3.32 in (1991)
Month to date precipitation 0.25  
Year to date precipitation 41.49  
Snow  
Snow - 0.10 in 1.80 in (1929)
Month to date snowfall 0.1  
Since 1 July snowfall 0.4  
Snow Depth -    
Sea Level Pressure  
Sea Level Pressure 30.18 in    
Wind  
Wind Speed 10 mph ()    
Max Wind Speed 25 mph    
Max Gust Speed 34 mph    
Visibility 10.0 miles    
Events Rain    
T = Trace of Precipitation, MM = Missing Value Source: Averaged Metar Reports

Daily Weather History Graph

Daily Weather History Graph

Search for Another Location

Airport or City:

Trip Planner

Search our weather history database for the weather conditions in past years. The results will help you decide how hot, cold, wet, or windy it might be!

Date:

Astronomy

Dec. 02, 2012 Rise Set
Actual Time 7:34 AM EST 5:16 PM EST
Civil Twilight 7:05 AM EST 5:45 PM EST
Nautical Twilight 6:32 AM EST 6:18 PM EST
Astronomical Twilight 6:01 AM EST 6:49 PM EST
Moon 9:01 PM EST (12/2) 10:25 AM EST (12/2)
Length of Visible Light 10h 39m
Length of Day
9h 41m
Waning Gibbous, 86% of the Moon is Illuminated
Dec 2
Waning Gibbous
Dec 6
Last Quarter
Dec 13
New
Dec 20
First Quarter
Dec 28
Full

Hourly Weather History & Observations

Time (EST) Temp. Dew Point Humidity Pressure Visibility Wind Dir Wind Speed Gust Speed Precip Events Conditions
12:15 AM 51.8 °F 44.6 °F 76% 30.23 in 10.0 mi SW 9.2 mph - N/A   Clear
12:35 AM 53.6 °F 44.6 °F 72% 30.23 in 10.0 mi SW 8.1 mph - N/A   Clear
12:55 AM 53.6 °F 44.6 °F 72% 30.23 in 10.0 mi SW 8.1 mph - N/A   Clear
1:15 AM 53.6 °F 44.6 °F 72% 30.23 in 10.0 mi SW 9.2 mph - N/A   Clear
1:35 AM 53.6 °F 44.6 °F 72% 30.23 in 10.0 mi SW 8.1 mph - N/A   Clear
1:55 AM 53.6 °F 44.6 °F 72% 30.23 in 10.0 mi SW 10.4 mph 16.1 mph N/A   Clear
2:15 AM 53.6 °F 44.6 °F 72% 30.23 in 10.0 mi SW 10.4 mph - N/A   Clear
2:35 AM 53.6 °F 44.6 °F 72% 30.23 in 10.0 mi SW 10.4 mph - N/A   Clear
2:55 AM 53.6 °F 44.6 °F 72% 30.23 in 10.0 mi SW 10.4 mph 16.1 mph N/A   Clear
3:15 AM 55.4 °F 44.6 °F 67% 30.23 in 10.0 mi SW 10.4 mph - N/A   Clear
3:35 AM 53.6 °F 44.6 °F 72% 30.22 in 10.0 mi SW 11.5 mph - N/A   Clear
3:55 AM 53.6 °F 44.6 °F 72% 30.21 in 10.0 mi SW 10.4 mph 17.3 mph N/A   Clear
4:15 AM 53.6 °F 44.6 °F 72% 30.20 in 10.0 mi SW 12.7 mph 18.4 mph N/A   Clear
4:35 AM 55.4 °F 44.6 °F 67% 30.20 in 10.0 mi SW 12.7 mph 17.3 mph N/A   Mostly Cloudy
4:55 AM 55.4 °F 44.6 °F 67% 30.20 in 10.0 mi SW 12.7 mph 18.4 mph N/A   Overcast
5:15 AM 55.4 °F 44.6 °F 67% 30.20 in 10.0 mi SW 12.7 mph 20.7 mph N/A   Mostly Cloudy
5:35 AM 55.4 °F 44.6 °F 67% 30.20 in 10.0 mi SW 10.4 mph 17.3 mph N/A   Clear
5:55 AM 55.4 °F 44.6 °F 67% 30.19 in 10.0 mi SW 12.7 mph 18.4 mph N/A   Clear
6:15 AM 55.4 °F 44.6 °F 67% 30.19 in 10.0 mi SW 12.7 mph 18.4 mph N/A   Clear
6:35 AM 55.4 °F 44.6 °F 67% 30.19 in 10.0 mi SW 12.7 mph - N/A   Scattered Clouds
6:55 AM 55.4 °F 44.6 °F 67% 30.19 in 10.0 mi SW 12.7 mph 21.9 mph N/A   Scattered Clouds
7:15 AM 55.4 °F 44.6 °F 67% 30.18 in 10.0 mi SW 13.8 mph 20.7 mph N/A   Scattered Clouds
7:35 AM 55.4 °F 44.6 °F 67% 30.18 in 10.0 mi SW 15.0 mph 23.0 mph N/A   Clear
7:55 AM 57.2 °F 44.6 °F 63% 30.18 in 10.0 mi SW 13.8 mph 21.9 mph N/A   Clear
8:15 AM 57.2 °F 44.6 °F 63% 30.18 in 10.0 mi SW 15.0 mph 20.7 mph N/A   Scattered Clouds
8:35 AM 59.0 °F 46.4 °F 63% 30.18 in 10.0 mi SW 18.4 mph 26.5 mph N/A   Overcast
8:55 AM 59.0 °F 46.4 °F 63% 30.18 in 10.0 mi SW 13.8 mph 26.5 mph N/A   Scattered Clouds
9:15 AM 59.0 °F 46.4 °F 63% 30.17 in 10.0 mi SW 19.6 mph 27.6 mph N/A   Clear
9:35 AM 60.8 °F 46.4 °F 59% 30.18 in 10.0 mi SW 20.7 mph 29.9 mph N/A   Clear
9:55 AM 60.8 °F 46.4 °F 59% 30.18 in 10.0 mi WSW 17.3 mph 27.6 mph N/A   Clear
10:15 AM 60.8 °F 48.2 °F 63% 30.18 in 10.0 mi WSW 23.0 mph 33.4 mph N/A   Scattered Clouds
10:35 AM 62.6 °F 48.2 °F 59% 30.18 in 10.0 mi WSW 20.7 mph 33.4 mph N/A   Scattered Clouds
10:55 AM 62.6 °F 50.0 °F 63% 30.18 in 10.0 mi WSW 20.7 mph 28.8 mph N/A   Overcast
11:15 AM 62.6 °F 50.0 °F 63% 30.17 in 10.0 mi WSW 18.4 mph 34.5 mph N/A   Overcast
11:35 AM 64.4 °F 50.0 °F 59% 30.16 in 10.0 mi WSW 25.3 mph 33.4 mph N/A   Overcast
11:55 AM 64.4 °F 50.0 °F 59% 30.16 in 10.0 mi WSW 17.3 mph 28.8 mph N/A   Overcast
12:15 PM 64.4 °F 51.8 °F 64% 30.15 in 10.0 mi WSW 20.7 mph 29.9 mph N/A   Overcast
12:35 PM 64.4 °F 51.8 °F 64% 30.14 in 10.0 mi WSW 15.0 mph 27.6 mph N/A   Overcast
12:55 PM 64.4 °F 51.8 °F 64% 30.13 in 10.0 mi WSW 17.3 mph 24.2 mph N/A   Overcast
1:15 PM 64.4 °F 51.8 °F 64% 30.13 in 10.0 mi WSW 18.4 mph 28.8 mph N/A   Overcast
1:35 PM 64.4 °F 51.8 °F 64% 30.13 in 10.0 mi WSW 17.3 mph 26.5 mph N/A   Overcast
1:55 PM 64.4 °F 51.8 °F 64% 30.13 in 10.0 mi WSW 12.7 mph 18.4 mph N/A Rain Light Rain
2:15 PM 62.6 °F 53.6 °F 72% 30.12 in 10.0 mi West 12.7 mph 21.9 mph N/A Rain Light Rain
2:35 PM 62.6 °F 53.6 °F 72% 30.13 in 10.0 mi WSW 5.8 mph - N/A Rain Light Rain
2:55 PM 62.6 °F 53.6 °F 72% 30.12 in 10.0 mi West 13.8 mph 18.4 mph N/A   Overcast
3:15 PM 60.8 °F 53.6 °F 77% 30.13 in 10.0 mi West 10.4 mph 19.6 mph N/A Rain Light Rain
3:35 PM 60.8 °F 53.6 °F 77% 30.13 in 10.0 mi West 8.1 mph - N/A Rain Light Rain
3:55 PM 60.8 °F 55.4 °F 82% 30.13 in 10.0 mi West 3.5 mph - N/A Rain Light Rain
4:15 PM 59.0 °F 55.4 °F 88% 30.14 in 10.0 mi Calm Calm - N/A Rain Rain
4:35 PM 59.0 °F 55.4 °F 88% 30.14 in 7.0 mi Calm Calm - N/A Rain Rain
4:55 PM 59.0 °F 55.4 °F 88% 30.15 in 10.0 mi Calm Calm - N/A   Light Drizzle
5:15 PM 59.0 °F 55.4 °F 88% 30.15 in 10.0 mi West 9.2 mph - N/A Rain Light Rain
5:35 PM 59.0 °F 53.6 °F 82% 30.15 in 10.0 mi West 5.8 mph - N/A   Overcast
5:55 PM 59.0 °F 55.4 °F 88% 30.15 in 10.0 mi WSW 4.6 mph - N/A   Overcast
6:15 PM 59.0 °F 55.4 °F 88% 30.16 in 10.0 mi WSW 6.9 mph - N/A   Overcast
6:35 PM 60.8 °F 53.6 °F 77% 30.16 in 10.0 mi WSW 8.1 mph - N/A   Overcast
6:55 PM 60.8 °F 53.6 °F 77% 30.17 in 10.0 mi WSW 9.2 mph - N/A   Overcast
7:15 PM 60.8 °F 53.6 °F 77% 30.17 in 10.0 mi WSW 6.9 mph - N/A   Overcast
7:35 PM 60.8 °F 53.6 °F 77% 30.18 in 10.0 mi WSW 5.8 mph - N/A   Overcast
7:55 PM 60.8 °F 53.6 °F 77% 30.18 in 10.0 mi WSW 8.1 mph - N/A   Overcast
8:15 PM 60.8 °F 53.6 °F 77% 30.18 in 10.0 mi WSW 4.6 mph - N/A   Overcast
8:35 PM 60.8 °F 53.6 °F 77% 30.18 in 10.0 mi WSW 4.6 mph - N/A   Overcast
8:55 PM 59.0 °F 53.6 °F 82% 30.18 in 10.0 mi WSW 4.6 mph - N/A   Overcast
9:15 PM 59.0 °F 53.6 °F 82% 30.19 in 10.0 mi WSW 5.8 mph - N/A   Overcast
9:35 PM 59.0 °F 53.6 °F 82% 30.19 in 10.0 mi SW 8.1 mph - N/A   Overcast
9:55 PM 59.0 °F 51.8 °F 77% 30.20 in 10.0 mi WSW 6.9 mph - N/A   Overcast
10:15 PM 59.0 °F 51.8 °F 77% 30.20 in 10.0 mi WSW 5.8 mph - N/A   Overcast
10:35 PM 59.0 °F 51.8 °F 77% 30.20 in 10.0 mi SW 8.1 mph - N/A   Overcast
10:55 PM 60.8 °F 51.8 °F 72% 30.20 in 10.0 mi WSW 6.9 mph - N/A   Overcast
11:15 PM 60.8 °F 51.8 °F 72% 30.20 in 10.0 mi WSW 8.1 mph - N/A   Overcast
11:35 PM 60.8 °F 51.8 °F 72% 30.20 in 10.0 mi WSW 8.1 mph - N/A   Overcast
11:55 PM 60.8 °F 51.8 °F 72% 30.20 in 10.0 mi WSW 6.9 mph - N/A   Overcast